Theta_e
339 337 340 341 339 341 339 338 340 341 339 335 329 328 327 330 331 329 327 325 324 323 320 322 321 318 320 318 317 315 313 310 313 310 317 317 317 317 317 316 315 314 315
335 338 339 339 340 338 340 341 342 340 339 336 332 330 329 330 331 330 325 323 323 324 325 322 319 316 317 317 317 316 315 317 313 307 308 309 314 317 319 317 315 313 314
331 334 340 342 342 339 338 343 340 341 339 335 330 328 325 324 325 327 324 320 323 324 322 322 317 314 314 313 317 316 315 312 311 311 310 308 306 309 315 318 314 312 310
333 337 338 338 339 338 341 343 340 340 339 334 330 328 325 319 320 322 326 321 323 323 323 322 316 314 315 316 315 315 313 312 307 311 311 311 310 304 303 313 315 311 310
333 334 337 339 339 340 339 338 339 338 339 335 334 331 325 325 322 320 322 319 321 320 323 320 317 315 312 313 312 311 310 312 312 309 310 309 307 309 302 299 302 310 311
330 331 336 338 338 340 339 338 337 336 337 334 334 331 327 324 321 317 318 319 317 319 319 320 318 313 314 312 312 312 311 314 313 312 311 308 304 302 302 301 300 303 305
327 329 330 331 333 333 335 335 335 335 336 334 333 331 332 325 322 321 321 320 317 317 317 317 316 315 315 314 314 312 314 311 310 312 311 310 310 308 307 307 305 302 305
328 328 329 333 334 334 334 335 335 335 336 336 336 335 332 329 327 322 323 319 320 319 318 319 317 318 317 317 316 314 314 313 311 310 311 310 312 312 309 309 306 303 303
323 329 330 333 335 334 335 334 335 334 336 335 333 333 333 330 328 324 324 326 323 322 321 319 320 321 318 315 315 314 314 313 311 310 309 308 312 313 312 311 309 306 301
321 322 327 332 335 336 337 336 337 336 336 336 336 334 331 334 329 329 327 329 327 323 322 320 321 321 321 319 313 312 315 311 311 311 311 310 311 311 313 312 308 310 306
320 323 324 326 327 328 337 337 337 336 335 336 336 333 332 333 332 330 325 323 323 322 322 321 320 322 320 318 314 315 314 311 310 309 311 312 312 311 311 310 309 310 309
323 324 324 325 325 322 335 334 335 334 333 334 333 331 334 332 330 327 324 321 321 322 321 321 320 321 321 318 318 315 317 312 311 312 312 311 314 309 310 310 309 308 308
320 320 321 322 319 321 323 324 326 333 336 333 331 330 329 328 329 327 326 325 319 319 320 320 319 320 320 318 318 318 316 314 314 313 310 312 311 309 310 310 310 307 310
315 316 318 319 322 322 322 322 323 329 336 334 329 329 329 328 329 325 326 325 321 318 319 321 320 320 319 319 319 318 317 316 315 313 312 311 311 310 310 310 308 308 309
311 319 318 318 320 321 321 322 323 325 325 331 332 331 331 329 328 329 327 326 325 322 321 320 320 319 319 319 318 318 317 315 312 311 312 312 313 315 314 312 310 308 304
317 320 320 320 319 318 319 321 319 319 325 325 326 330 329 331 328 326 328 327 325 324 323 321 321 320 320 314 312 316 316 314 311 310 311 312 313 314 313 313 312 307 304
318 319 320 319 318 317 317 316 316 317 318 323 329 328 327 329 330 331 328 326 324 324 323 322 321 321 321 310 308 311 315 312 311 309 310 312 313 312 312 311 310 310 309
319 319 319 319 318 318 318 317 315 316 317 317 319 324 326 324 325 324 324 324 324 322 319 320 321 320 319 309 306 307 313 311 310 310 309 309 309 309 310 309 309 309 309
318 318 321 321 319 316 315 314 315 314 315 315 315 319 319 318 319 323 323 323 321 320 320 320 321 319 318 309 303 305 312 309 309 310 310 309 309 308 305 308 308 309 309
317 316 318 317 314 313 314 314 313 313 312 313 317 318 319 317 315 319 321 323 322 321 321 319 318 316 318 306 301 304 310 308 308 309 309 307 308 305 303 307 306 306 306
321 321 319 317 315 314 313 313 314 311 311 314 314 315 317 317 315 318 319 319 319 320 319 317 316 316 316 309 299 302 309 308 308 308 308 309 305 302 301 301 306 306 304
312 317 315 314 317 315 314 312 311 314 315 313 313 312 312 316 316 316 315 317 318 317 316 315 314 312 314 305 299 300 304 307 309 308 309 309 303 301 300 300 301 300 300
310 312 312 312 314 315 315 313 314 315 315 314 315 314 313 313 314 313 314 314 314 315 313 314 314 312 311 309 300 299 300 303 308 309 306 301 299 299 299 298 298 298 297
305 311 312 311 311 314 316 314 315 316 315 314 314 313 311 311 311 310 310 313 311 311 312 312 311 311 310 309 306 303 303 302 305 307 307 304 302 300 301 300 299 297 296
305 305 305 305 305 311 313 313 316 316 313 312 312 312 313 312 310 309 310 310 312 310 311 313 313 311 308 309 305 304 306 307 306 304 303 304 304 301 299 298 298 297 296
303 303 303 303 305 306 306 308 313 312 308 307 308 306 306 305 305 303 303 298 298 297 296 296 306 311 306 300 299 299 299 299 299 301 303 304 302 302 302 300 300 297 300
Wind_Speed
9 17 9 14 12 12 12 9 11 10 9 5 5 4 3 3 1 3 6 6 4 5 6 4 4 2 3 1 4 3 4 3 2 3 4 3 3 3 4 3 3 5 10
7 8 8 12 16 14 9 10 15 11 7 5 4 4 3 1 2 3 5 4 3 5 6 4 2 2 2 2 3 4 2 2 2 3 2 2 4 3 2 2 2 3 3
7 10 11 9 11 12 7 12 6 11 7 9 8 5 4 3 1 1 2 0 1 5 5 5 5 2 2 1 1 3 3 0 2 2 4 2 1 2 2 3 3 4 2
8 8 8 10 7 9 9 16 9 9 9 11 8 5 4 4 4 4 3 3 2 3 2 4 5 2 2 3 1 2 2 3 2 3 1 2 4 2 3 2 2 3 4
7 7 7 9 8 8 8 6 7 7 7 9 9 6 5 2 3 2 4 3 3 3 4 5 4 3 3 2 4 4 3 3 3 1 3 2 2 1 3 2 4 3 4
8 5 6 7 7 7 7 7 7 6 7 6 6 7 6 6 5 4 4 3 3 3 5 5 4 3 2 2 2 2 3 3 2 2 3 2 1 1 3 2 1 2 4
8 6 6 7 7 7 7 6 7 6 7 7 6 6 4 7 7 6 5 4 3 4 6 5 5 3 2 2 2 3 2 2 2 2 1 3 2 0 1 3 1 1 3
13 10 9 8 8 7 8 8 8 7 8 8 9 7 7 4 4 6 4 5 5 5 7 6 6 5 5 3 4 2 2 3 2 3 2 1 1 2 0 3 3 3 2
12 14 11 11 10 9 9 10 9 6 8 8 6 6 6 6 5 7 6 5 5 5 6 7 6 6 5 5 3 2 1 3 3 2 3 2 0 2 3 2 4 4 1
11 8 9 11 10 12 12 9 9 9 8 8 7 6 7 6 6 6 7 7 5 6 5 6 6 6 5 6 6 3 3 4 3 3 3 3 0 1 2 2 1 2 3
10 8 8 8 8 9 12 8 8 8 7 7 7 7 6 6 5 4 3 4 4 5 5 7 8 6 6 6 6 5 5 7 4 3 5 4 2 1 2 1 2 1 1
10 11 11 10 6 3 13 8 8 8 7 6 6 5 6 6 5 5 5 4 5 4 5 6 7 6 6 7 7 7 6 6 7 7 5 5 3 2 3 3 4 0 1
12 11 10 7 8 9 8 6 5 8 8 6 7 6 5 6 6 6 6 6 6 6 5 5 6 6 7 7 7 9 8 8 8 8 6 5 4 2 2 2 3 2 1
5 5 8 8 9 8 8 8 8 6 6 7 5 4 5 7 7 6 6 7 7 7 6 6 7 7 7 8 9 9 11 9 7 7 6 6 5 2 2 4 3 3 2
8 5 8 8 8 8 8 7 6 5 5 5 6 6 6 6 5 7 6 5 6 6 6 6 6 6 7 8 8 9 11 10 9 6 5 4 3 4 4 3 2 6 2
8 12 11 10 8 8 7 5 5 4 1 5 6 5 3 5 6 6 5 5 5 5 5 7 7 7 8 9 13 12 10 10 7 7 6 5 5 1 5 4 9 8 5
9 10 8 8 8 7 5 4 2 3 5 6 6 5 2 4 2 4 5 5 6 5 7 7 6 8 9 11 13 14 7 7 9 9 6 4 3 3 4 3 7 9 9
15 15 13 13 5 4 2 4 3 4 5 7 6 3 2 1 4 4 5 5 4 6 6 6 6 5 4 9 11 12 10 7 7 8 7 5 5 5 5 5 5 9 9
6 7 10 8 7 1 2 5 4 3 5 5 4 4 5 4 3 4 6 5 4 4 5 5 6 6 6 10 11 11 7 6 8 8 7 6 6 8 9 5 7 8 7
6 5 6 4 6 2 4 5 6 5 4 4 3 2 3 2 2 1 2 2 3 5 4 5 5 6 5 6 7 11 5 7 7 6 6 10 9 11 12 8 7 6 5
7 7 5 5 5 4 0 1 5 2 1 3 3 4 3 4 4 4 3 3 3 3 4 5 5 5 5 4 9 13 7 6 6 5 5 5 13 12 12 10 6 6 4
6 8 6 5 5 7 9 7 8 8 12 8 6 6 7 5 4 4 4 4 4 5 5 5 4 4 4 6 10 11 7 8 6 6 5 5 7 8 11 7 10 10 5
4 2 3 1 2 5 6 4 5 7 9 17 18 8 7 6 6 4 6 5 5 5 4 4 6 4 3 3 9 14 11 7 4 3 1 4 8 9 5 10 9 7 4
4 1 1 3 5 4 5 7 5 5 4 8 9 14 7 7 7 5 5 5 4 4 4 4 4 4 3 3 3 5 7 6 3 4 4 6 8 7 5 5 5 5 5
3 3 2 1 3 4 6 6 7 7 8 10 10 7 6 7 6 6 5 4 5 4 5 4 5 4 4 5 8 7 6 6 7 4 3 4 4 4 4 5 7 5 5
2 3 4 4 6 5 6 7 6 5 5 6 6 5 5 5 5 5 6 3 2 5 7 2 2 3 4 9 11 11 11 11 6 3 3 6 4 5 5 6 7 4 7
Wind_Direction
141 156 139 124 128 126 134 141 117 111 119 113 96 83 93 69 41 40 55 34 50 66 59 36 343 17 34 51 81 81 47 351 39 76 359 337 285 168 172 208 183 206 180
67 77 128 136 143 146 134 111 126 126 124 113 116 114 122 95 297 136 81 41 62 67 53 12 300 56 19 26 67 78 39 344 354 128 140 330 350 329 232 211 182 229 134
62 43 48 47 148 138 103 103 129 134 122 111 107 88 79 40 33 129 111 246 174 106 111 288 312 48 81 351 116 100 94 13 328 354 137 48 204 307 306 224 175 143 130
51 61 54 52 66 100 119 139 164 148 132 127 121 140 155 174 205 183 159 171 228 115 176 299 275 320 75 49 66 108 130 84 347 332 354 163 155 145 360 1 270 208 180
52 73 82 86 81 85 94 115 106 113 136 150 148 156 183 196 120 107 154 170 213 204 240 275 252 202 111 161 108 89 87 105 95 14 335 60 78 61 122 268 322 330 257
82 84 114 117 120 123 124 134 141 157 155 151 158 165 165 161 154 173 161 187 211 235 252 265 269 186 122 160 112 139 137 116 59 131 121 86 107 177 121 127 267 239 305
146 159 150 131 128 134 142 145 155 164 163 169 182 176 206 165 174 173 170 174 202 216 221 216 209 175 198 197 141 143 82 118 85 54 75 118 100 278 137 98 309 80 307
168 168 171 159 157 162 166 166 177 179 176 181 179 184 183 172 179 179 184 186 197 206 204 204 192 190 194 182 160 157 157 164 119 82 13 320 129 83 124 135 113 333 334
166 174 177 169 171 177 187 182 185 185 180 185 173 180 181 190 185 183 196 202 197 203 196 187 180 189 185 192 172 156 217 154 140 188 230 257 57 47 43 58 85 118 292
175 174 162 184 181 184 193 186 172 174 180 184 180 189 182 184 189 179 193 212 200 178 167 180 183 188 189 168 179 189 192 164 197 197 237 259 192 69 46 90 72 160 130
153 147 148 161 181 187 180 170 164 166 169 172 180 183 187 181 172 170 182 198 198 187 177 188 193 189 186 175 171 184 194 199 205 237 230 232 216 308 353 19 303 290 116
158 178 176 185 194 124 139 156 163 176 160 155 159 185 165 144 153 172 186 205 235 219 208 183 186 190 193 183 174 193 213 199 206 233 223 224 184 209 286 306 288 137 180
188 198 168 164 140 107 107 105 112 171 160 159 165 167 166 169 184 185 185 190 204 220 203 189 188 203 198 194 191 200 203 203 212 219 208 204 200 253 315 288 335 279 329
154 186 115 114 99 91 81 74 63 87 144 154 166 176 187 202 194 182 199 200 191 198 217 208 204 205 197 196 210 210 215 206 196 193 195 184 187 188 299 281 282 308 5
42 120 97 93 99 96 79 46 52 67 96 111 152 195 201 222 194 197 204 199 195 200 204 219 220 215 214 223 223 215 217 201 191 180 175 182 162 73 356 253 277 259 212
68 98 100 95 83 75 75 69 36 28 202 136 123 149 213 230 199 204 201 201 202 202 204 217 222 227 232 226 212 196 215 203 166 186 185 146 161 162 293 285 213 204 199
95 107 99 104 95 77 68 80 42 3 32 77 121 135 133 100 112 174 190 198 214 214 220 223 222 238 242 217 208 207 210 170 188 195 159 149 186 209 264 259 251 267 262
54 49 33 359 85 78 339 284 142 70 71 73 81 103 139 151 180 188 217 228 211 219 223 228 231 235 241 224 220 200 205 193 183 168 161 174 211 234 249 244 251 257 252
83 107 110 159 282 80 355 8 25 106 84 75 68 75 79 57 26 219 224 220 201 230 228 220 218 217 240 231 217 184 194 173 167 154 167 186 221 240 253 269 282 270 244
151 155 196 229 104 63 54 12 355 46 42 29 353 52 151 161 287 295 209 228 209 223 218 240 240 230 240 222 216 196 175 171 160 160 180 206 233 240 247 247 245 253 246
57 30 9 327 6 359 246 194 339 317 332 341 332 339 326 241 252 216 225 243 262 268 237 234 242 237 230 201 185 183 181 174 158 174 198 219 233 229 244 235 231 242 177
73 69 47 45 59 28 50 20 37 345 354 330 316 310 309 295 292 260 256 253 248 252 251 233 237 247 220 187 190 192 177 155 167 191 205 213 230 255 245 224 217 240 214
107 124 117 344 167 186 122 318 319 326 21 332 321 294 292 292 295 294 283 280 252 236 247 225 262 258 219 186 184 185 193 174 178 164 171 231 250 261 254 235 233 221 209
59 67 181 272 276 237 222 222 218 222 201 240 271 284 270 276 280 282 276 255 252 219 240 215 239 239 202 185 170 191 197 208 196 247 257 246 251 259 254 269 237 217 214
26 46 41 331 301 289 268 245 224 226 229 244 248 252 247 257 274 274 256 268 248 232 202 215 201 203 209 202 172 170 174 183 208 204 247 262 261 266 250 240 242 225 206
327 329 297 290 288 295 281 265 237 235 267 304 303 279 251 253 261 265 285 206 284 347 324 277 154 210 208 173 169 173 171 182 199 167 219 241 241 256 265 243 252 219 210